Orbital Elements at Epoch 2459200.5 (2020-Dec-17.0) TDB
Reference: JPL 13 (heliocentric ecliptic J2000)
Element | Value | Uncertainty (1-sigma) | Units |
e | .1432633563806468 | 5.5036e-08 | |
a | 3.162981043348339 | 2.7893e-08 | au |
q | 2.709841762909896 | 1.8315e-07 | au |
i | 15.28422560374548 | 5.1647e-06 | deg |
node | 271.6537715058088 | 2.2167e-05 | deg |
peri | 73.83129378036655 | 2.9343e-05 | deg |
M | 279.5940705515532 | 2.0031e-05 | deg |
tp | 2459659.411442170065 (2022-Mar-20.91144217) | 0.00011747 | TDB |
period | 2054.675821975899 5.63 | 2.7179e-05 7.441e-08 | d yr |
n | .1752101212997205 | 2.3176e-09 | deg/d |
Q | 3.616120323786783 | 3.1889e-08 | au |
|
| | Orbit Determination Parameters
Additional Information
|